Temperature
17 16 16 16 16 16 16 16 16 16 16 16 16 16 16 15 15 15 15 15 15 15 15 15 15 15 15 15 15 15 15 15 15 15 15 15 14 14 14 14 14 14 14
17 17 16 16 16 16 16 16 16 16 16 16 16 15 15 15 15 15 15 15 15 15 15 15 15 15 15 15 15 15 15 15 15 14 14 14 14 14 14 14 14 14 14
17 16 16 16 16 16 16 16 16 16 16 16 15 15 15 15 15 15 15 15 14 14 14 14 14 15 15 15 15 15 14 15 15 14 14 14 14 14 14 14 14 14 14
17 16 16 15 16 16 16 16 16 16 16 15 15 15 15 15 15 15 15 14 14 14 14 14 14 14 14 14 14 14 14 14 14 14 14 14 14 14 14 14 14 14 14
16 16 15 15 15 15 15 15 15 15 15 15 15 15 15 15 15 15 14 14 14 14 14 14 14 14 14 14 14 14 14 14 14 14 14 14 14 14 14 14 14 14 13
16 15 15 15 15 15 15 15 15 15 15 15 15 15 15 15 15 14 14 14 14 14 14 14 14 14 14 14 14 14 14 14 14 14 14 14 13 13 13 13 13 13 13
15 15 15 15 15 15 15 15 15 15 15 15 15 15 15 15 14 14 14 14 14 14 14 13 14 13 13 13 13 14 14 14 13 13 13 13 13 13 13 13 13 13 13
15 15 14 14 14 14 15 15 15 15 15 15 14 14 14 14 14 14 14 14 14 13 13 13 13 13 13 13 13 13 13 13 13 13 13 13 13 13 13 13 13 13 13
14 14 14 14 14 14 14 14 14 14 14 14 14 14 14 14 14 14 14 14 13 13 13 13 13 13 13 13 13 13 13 13 13 13 13 13 13 13 13 13 13 13 13
13 13 14 14 14 14 14 14 14 14 14 14 14 14 14 14 14 14 13 13 13 13 13 13 13 13 13 13 13 13 13 13 13 13 13 13 12 12 12 12 12 12 12
13 13 13 13 13 14 14 14 13 13 14 14 13 13 13 13 13 13 13 13 13 13 13 13 13 13 13 13 13 12 12 12 12 12 12 12 12 12 12 12 12 12 12
12 12 12 13 13 13 13 13 13 13 13 13 13 13 13 13 13 13 13 13 13 13 13 13 12 12 12 12 12 12 12 12 12 12 12 12 12 12 12 12 12 12 12
12 12 12 12 12 12 12 13 13 13 13 13 13 13 13 13 13 13 13 13 12 12 12 12 12 12 12 12 12 12 12 12 12 12 12 12 12 12 12 11 11 11 11
11 11 11 11 12 12 12 12 12 12 12 12 12 12 12 12 13 13 12 12 12 12 12 12 12 12 12 12 12 12 12 12 12 12 12 11 11 11 11 11 11 11 11
10 11 11 11 11 11 11 12 12 12 12 12 12 12 12 12 12 12 12 12 12 12 12 12 12 12 12 12 12 11 11 11 11 11 11 11 11 11 11 11 11 11 11
9 10 10 10 10 11 11 11 11 11 12 12 12 12 12 12 12 12 12 12 12 12 12 11 12 11 11 11 11 11 11 11 11 11 11 11 11 11 11 11 11 11 11
9 9 10 10 10 10 10 11 11 11 11 11 11 11 11 11 11 12 12 12 11 11 11 11 11 11 11 11 11 11 11 11 11 11 11 11 11 11 10 10 10 11 11
8 9 9 9 10 10 10 10 10 11 11 11 11 11 11 11 11 11 11 11 11 11 11 11 11 11 11 11 11 11 11 11 10 11 11 11 10 10 10 10 10 10 10
7 8 8 9 9 9 9 10 10 10 10 10 10 11 10 10 10 10 11 11 11 11 11 11 11 11 11 10 10 10 10 10 10 10 10 10 10 10 10 10 10 10 10
7 7 7 8 8 9 9 9 9 9 10 10 10 10 10 10 10 10 10 10 10 10 10 10 10 10 10 10 10 10 10 10 10 10 10 10 10 10 10 10 10 10 10
6 6 7 7 8 8 8 8 9 9 9 9 9 10 10 10 10 10 10 10 10 10 10 10 10 10 10 10 10 10 9 10 10 10 10 10 10 10 10 10 10 10 10
5 5 6 6 7 7 7 8 8 8 8 9 9 9 9 9 9 9 9 9 9 9 9 10 10 10 10 10 10 10 9 9 9 9 9 9 9 9 9 9 9 9 9
4 4 5 5 6 6 7 7 7 7 8 8 8 9 9 9 9 9 9 9 9 9 9 9 9 9 10 9 9 10 9 9 9 9 9 9 9 9 9 9 9 9 9
3 3 4 5 5 6 6 6 7 7 7 7 8 8 8 9 9 9 9 9 9 9 9 9 9 9 9 9 9 9 9 9 9 9 9 9 9 9 9 9 9 9 9
2 3 3 4 5 5 5 6 6 6 6 7 7 7 8 8 8 8 8 8 8 8 9 9 9 9 9 9 9 9 9 9 9 9 9 9 9 9 9 9 9 9 9
2 2 3 3 4 4 4 5 5 5 5 6 6 7 7 7 8 8 8 8 8 8 8 8 8 8 9 9 9 9 9 9 9 9 9 9 9 9 9 9 9 8 8
Wind_Speed
6 9 16 17 17 16 16 16 17 17 18 18 18 17 17 17 16 16 15 15 15 15 15 16 16 17 17 18 18 18 17 18 18 17 18 18 18 19 19 19 18 17 19
9 13 17 18 18 17 16 16 17 17 17 17 17 17 16 16 16 15 15 15 14 14 15 16 16 17 17 17 18 18 18 18 17 17 17 17 18 18 18 18 18 17 19
10 13 17 18 18 17 17 16 16 17 17 17 17 17 16 15 15 15 14 14 14 14 14 15 16 16 16 16 17 17 17 17 17 16 15 14 15 17 17 17 17 18 18
10 13 15 18 18 17 17 16 16 17 16 16 16 16 15 15 14 14 14 14 14 14 15 15 15 16 16 16 17 17 17 16 16 15 13 13 13 15 16 16 16 17 17
9 11 14 18 17 17 17 16 16 16 16 16 15 15 15 14 14 14 14 14 14 14 14 15 15 16 16 16 16 16 16 15 15 14 13 13 12 14 15 15 16 16 16
7 9 13 17 17 16 16 16 16 16 16 15 15 14 14 14 14 14 14 14 13 13 14 14 15 15 15 15 15 15 14 14 13 13 12 12 12 13 14 15 15 15 15
7 9 12 15 15 15 15 15 15 15 15 15 14 14 14 14 14 13 13 13 13 13 14 14 14 14 14 14 14 14 13 13 13 11 11 11 12 13 14 14 15 15 15
7 7 10 13 13 13 13 14 14 14 15 14 14 14 14 13 13 13 13 13 13 13 13 13 14 14 13 13 13 13 12 11 10 10 10 10 12 13 13 14 14 14 14
6 6 7 9 10 11 12 12 12 13 14 14 14 13 13 13 14 13 12 12 12 12 13 13 13 13 14 13 13 13 12 11 11 9 8 10 12 13 13 13 13 14 13
6 5 5 6 7 8 10 11 11 12 12 13 13 13 13 13 13 13 12 11 12 12 13 13 13 13 14 13 13 13 12 11 10 9 8 9 11 11 12 12 12 13 12
4 4 4 4 5 6 8 9 10 11 11 11 11 13 12 11 11 11 11 11 11 12 12 12 12 12 13 12 12 12 11 10 9 8 7 9 10 10 11 11 11 12 11
2 2 3 3 4 4 6 7 8 8 9 9 9 10 10 10 10 10 11 11 11 12 12 12 12 12 11 11 10 10 9 9 9 7 6 8 9 9 10 10 11 11 10
1 2 2 2 3 4 3 5 5 6 7 7 8 9 9 9 9 9 8 9 10 10 10 11 10 10 10 9 9 9 9 8 8 7 6 8 8 8 9 10 10 10 9
2 2 2 3 3 3 3 3 4 4 5 5 7 8 8 6 6 7 6 7 8 8 9 9 9 9 10 9 9 8 7 7 7 7 6 7 7 7 8 9 9 9 9
4 3 2 3 3 2 3 2 3 3 4 5 6 7 7 5 4 5 5 6 7 9 8 8 8 8 8 7 7 7 7 7 7 7 6 6 6 6 7 7 8 8 8
4 4 2 2 3 2 2 1 1 3 4 5 5 6 7 6 6 5 5 5 6 8 8 8 8 7 6 6 5 6 6 6 6 6 6 6 5 6 6 7 7 7 7
4 4 3 2 3 2 2 1 1 2 4 4 5 6 7 6 6 6 5 5 6 8 9 8 8 7 5 5 4 4 5 5 6 5 6 5 5 5 5 5 6 6 6
5 5 4 2 2 2 2 1 1 2 3 3 5 6 6 6 7 6 5 4 7 8 8 6 5 4 3 3 3 2 3 4 5 5 5 5 5 4 4 4 4 5 5
4 4 4 3 2 2 2 1 1 1 2 3 4 5 5 6 7 6 5 5 7 7 6 5 4 4 4 4 3 2 2 2 3 4 4 4 4 4 4 3 3 3 3
4 4 4 3 3 2 2 2 1 1 1 1 2 4 5 5 6 6 5 6 7 5 4 4 5 3 4 5 4 3 1 2 2 2 2 3 3 4 4 3 2 2 1
5 5 4 3 3 2 1 1 0 1 1 0 0 2 4 5 6 5 4 5 6 5 5 5 4 5 3 3 3 2 2 1 1 1 1 2 2 2 3 3 2 2 1
6 6 5 3 2 2 1 1 1 1 1 2 1 1 3 4 6 6 5 4 5 4 5 5 5 4 3 3 3 3 1 1 1 0 1 1 1 2 2 2 2 2 1
7 6 5 5 3 3 2 1 1 1 1 0 1 1 1 3 4 5 6 5 5 5 6 5 6 6 4 3 2 3 3 3 1 1 1 1 2 1 1 2 2 2 2
8 6 5 4 4 3 2 1 1 1 1 2 2 2 2 3 3 4 5 5 5 5 5 5 5 4 6 5 2 1 2 3 3 1 1 1 2 2 2 2 2 3 3
9 7 5 5 4 3 2 1 1 1 1 2 2 2 2 2 3 3 4 4 5 5 5 6 5 4 4 5 4 3 2 1 2 3 2 2 1 2 2 3 3 4 4
9 7 6 5 5 4 3 2 1 1 2 2 2 2 2 2 2 3 3 4 5 5 6 6 6 5 5 5 4 4 4 3 3 3 3 3 2 2 1 2 3 5 5
Wind_Direction
168 164 159 151 146 141 136 132 128 126 125 123 122 121 120 118 116 115 112 109 107 106 103 101 100 99 99 96 94 92 90 88 86 84 85 85 86 85 83 80 78 77 80
152 159 157 152 148 144 140 135 131 128 127 125 124 123 121 120 119 119 117 115 113 110 106 104 101 99 98 98 96 93 92 90 88 84 83 83 85 85 84 81 81 81 80
144 156 155 151 148 145 141 138 134 131 130 128 126 126 124 123 122 121 120 118 115 112 109 106 104 102 100 99 97 95 93 92 89 86 81 81 85 87 85 82 81 81 81
146 153 153 151 147 145 143 141 138 135 133 130 128 127 126 126 125 123 121 119 116 112 109 107 106 105 103 101 98 96 94 93 89 85 79 80 85 89 87 85 83 82 81
138 147 152 150 148 146 145 143 142 139 136 133 131 130 128 127 126 124 121 119 117 113 111 108 107 106 106 103 101 99 97 94 89 84 81 82 85 90 89 87 84 83 82
125 132 146 149 150 147 146 146 145 142 138 136 135 133 131 128 126 124 121 119 117 115 114 112 110 108 107 105 104 102 100 97 92 85 83 86 88 92 91 88 85 84 84
130 130 142 143 146 147 149 149 148 145 142 139 137 136 133 130 127 125 122 122 120 118 116 115 113 110 108 107 106 104 101 99 95 88 85 88 93 94 92 90 87 86 85
123 123 137 144 146 145 147 150 149 148 145 143 141 138 134 131 130 128 125 124 124 122 120 118 117 114 111 108 108 106 101 99 96 90 88 93 98 97 95 93 90 88 87
99 104 115 136 143 146 147 147 149 149 148 146 143 139 135 133 131 130 128 128 127 124 121 119 117 117 114 112 110 106 102 97 94 89 89 95 100 97 96 94 92 91 89
85 87 96 117 133 137 143 145 143 143 145 144 141 137 134 133 133 134 132 132 130 126 124 121 117 118 118 114 111 108 104 96 91 87 89 99 101 99 98 98 98 95 93
87 76 81 86 111 130 137 140 137 136 136 136 137 137 132 129 129 133 134 133 132 128 126 123 119 116 116 115 113 111 105 97 95 89 92 103 105 102 102 103 102 98 96
111 88 78 82 90 111 133 132 129 129 128 125 128 131 133 130 130 133 137 134 132 129 128 125 121 115 111 109 109 109 104 100 95 92 100 107 109 107 107 106 104 102 99
118 78 60 63 85 94 106 123 121 123 122 122 126 127 131 128 127 127 128 125 122 124 121 122 115 113 114 114 110 107 106 101 95 91 97 108 112 114 113 112 108 104 102
43 40 37 47 64 87 95 116 122 119 122 126 136 136 130 128 128 130 128 129 125 124 121 119 116 117 117 119 117 110 106 103 98 92 94 105 113 116 116 115 113 109 106
26 16 18 30 51 67 100 108 130 133 137 143 144 146 142 137 140 139 136 136 135 133 129 124 122 121 120 121 120 116 111 107 104 97 93 99 109 114 117 120 117 112 107
7 358 5 29 32 49 72 95 128 148 148 149 152 154 151 146 147 146 143 141 140 141 138 134 132 127 124 125 119 121 122 117 111 105 99 93 98 104 113 115 116 113 109
356 353 359 10 26 38 51 62 123 150 151 152 161 159 156 153 153 152 149 152 153 148 138 128 122 118 118 117 116 119 121 119 117 113 111 105 97 92 104 112 114 116 113
2 359 351 357 18 23 31 30 77 144 153 162 166 166 164 162 158 153 154 160 158 151 143 134 129 120 119 123 128 122 118 118 119 121 121 118 111 99 91 98 105 110 117
0 0 351 0 22 8 15 37 32 129 149 159 166 170 173 170 165 158 162 163 161 151 146 147 140 138 138 132 125 115 109 112 121 126 123 125 124 118 108 96 98 102 114
360 3 357 3 11 15 26 36 34 42 64 99 166 174 173 176 171 162 160 165 161 156 159 155 147 137 142 143 124 95 76 95 101 118 131 131 132 136 133 116 104 101 109
8 7 0 5 8 24 24 26 251 247 271 252 272 181 172 173 172 168 163 167 167 172 175 162 143 141 141 139 115 92 38 58 102 109 118 126 126 136 139 136 132 115 87
5 360 351 352 354 1 338 298 247 252 241 229 243 218 180 174 175 177 172 179 178 172 171 170 153 150 154 163 141 132 119 353 328 141 131 157 148 137 145 152 153 150 127
1 353 341 341 339 340 348 14 18 27 13 293 285 251 237 194 181 184 182 180 181 179 186 185 176 166 170 189 174 155 158 198 223 287 218 190 184 175 193 175 173 176 169
346 342 341 341 342 345 355 30 66 22 288 273 275 262 243 213 198 190 182 180 183 186 191 194 192 177 168 181 174 137 142 150 157 183 273 238 212 207 215 211 208 199 196
350 345 344 348 351 351 356 2 39 351 313 314 312 290 248 225 212 198 184 183 189 195 197 198 195 191 179 180 175 158 128 109 127 157 202 238 251 236 223 226 218 207 207
355 353 354 356 354 355 356 354 359 339 334 336 331 311 291 260 236 218 199 195 199 200 200 203 199 197 197 185 181 173 167 166 172 166 182 205 226 248 241 238 217 209 208
Height
1509 1512 1515 1518 1520 1523 1525 1527 1529 1531 1533 1534 1536 1537 1538 1539 1540 1542 1543 1544 1545 1546 1546 1547 1548 1549 1549 1550 1550 1551 1552 1552 1553 1554 1554 1555 1556 1556 1556 1557 1557 1557 1558
1509 1512 1515 1518 1520 1523 1525 1528 1530 1532 1533 1535 1536 1538 1539 1540 1542 1543 1544 1545 1546 1547 1548 1549 1549 1550 1551 1551 1552 1553 1554 1554 1555 1556 1556 1557 1558 1558 1559 1559 1559 1560 1560
1509 1512 1515 1518 1521 1523 1526 1528 1530 1532 1534 1536 1537 1539 1540 1541 1543 1544 1545 1546 1547 1548 1549 1550 1551 1552 1552 1553 1554 1554 1555 1556 1557 1557 1558 1559 1559 1560 1560 1561 1561 1561 1562
1510 1513 1516 1519 1521 1524 1526 1529 1531 1533 1535 1536 1538 1540 1541 1542 1543 1545 1546 1547 1548 1549 1550 1551 1552 1553 1554 1555 1555 1556 1557 1558 1559 1559 1560 1561 1561 1562 1562 1563 1563 1563 1563
1510 1513 1516 1519 1522 1524 1526 1529 1531 1533 1535 1537 1539 1540 1542 1543 1544 1546 1547 1548 1549 1550 1551 1552 1553 1554 1555 1556 1557 1558 1559 1559 1560 1561 1562 1562 1563 1564 1564 1564 1564 1564 1565
1511 1514 1517 1519 1522 1524 1527 1529 1531 1533 1535 1537 1539 1541 1542 1544 1545 1546 1547 1549 1550 1551 1552 1553 1554 1555 1557 1558 1559 1559 1560 1561 1562 1563 1563 1564 1564 1565 1565 1566 1566 1566 1566
1511 1514 1517 1519 1522 1524 1527 1529 1531 1533 1535 1537 1539 1541 1542 1544 1545 1547 1548 1550 1551 1552 1553 1554 1555 1556 1558 1559 1560 1561 1562 1562 1563 1564 1565 1566 1566 1566 1567 1567 1567 1567 1567
1511 1514 1517 1519 1522 1524 1526 1529 1531 1533 1535 1537 1539 1541 1543 1544 1546 1547 1549 1550 1551 1553 1554 1555 1556 1558 1559 1560 1561 1562 1563 1564 1565 1565 1566 1567 1567 1568 1568 1568 1568 1568 1568
1512 1514 1517 1519 1522 1524 1526 1529 1531 1533 1535 1537 1539 1541 1543 1544 1546 1548 1549 1551 1552 1553 1555 1556 1557 1558 1560 1561 1562 1563 1564 1565 1566 1567 1567 1568 1569 1569 1569 1570 1570 1570 1570
1513 1515 1517 1519 1521 1524 1526 1528 1530 1533 1535 1537 1539 1541 1543 1544 1546 1548 1549 1551 1552 1554 1555 1556 1557 1559 1560 1561 1563 1564 1565 1566 1567 1568 1568 1569 1570 1570 1570 1571 1571 1571 1571
1513 1514 1516 1518 1520 1523 1525 1528 1530 1532 1534 1536 1538 1541 1542 1544 1546 1547 1549 1551 1553 1554 1555 1556 1558 1559 1561 1562 1563 1564 1565 1567 1567 1568 1569 1570 1571 1571 1571 1571 1572 1572 1572
1512 1514 1516 1518 1520 1522 1524 1526 1529 1531 1533 1535 1537 1540 1542 1543 1545 1547 1549 1551 1552 1554 1555 1556 1558 1559 1561 1562 1563 1565 1566 1567 1568 1569 1570 1571 1571 1572 1572 1572 1572 1573 1573
1511 1513 1515 1517 1519 1521 1523 1525 1527 1530 1532 1534 1537 1539 1541 1543 1544 1546 1548 1550 1551 1553 1554 1556 1557 1559 1561 1562 1563 1565 1566 1567 1568 1569 1570 1571 1572 1572 1572 1573 1573 1573 1573
1510 1512 1514 1516 1518 1520 1522 1524 1526 1528 1530 1533 1535 1537 1539 1541 1543 1545 1547 1549 1550 1552 1554 1555 1557 1558 1560 1562 1563 1565 1566 1567 1568 1569 1570 1571 1572 1572 1573 1573 1573 1574 1574
1509 1511 1513 1515 1517 1519 1521 1523 1525 1527 1529 1531 1533 1536 1538 1540 1542 1544 1545 1547 1549 1551 1553 1555 1556 1558 1560 1561 1563 1564 1566 1567 1568 1569 1570 1571 1572 1572 1573 1573 1574 1574 1574
1508 1509 1511 1513 1515 1517 1518 1521 1523 1526 1528 1530 1532 1534 1536 1538 1540 1542 1544 1546 1548 1550 1552 1554 1555 1557 1559 1560 1562 1563 1565 1566 1567 1568 1569 1570 1571 1572 1572 1573 1574 1574 1574
1506 1508 1509 1511 1513 1514 1516 1519 1521 1523 1525 1528 1530 1532 1534 1536 1538 1540 1542 1545 1547 1549 1551 1553 1554 1556 1558 1559 1561 1562 1564 1565 1566 1567 1568 1569 1570 1571 1572 1573 1573 1574 1574
1505 1506 1507 1509 1511 1513 1514 1517 1519 1521 1523 1526 1528 1530 1532 1534 1536 1538 1540 1543 1545 1547 1549 1551 1553 1554 1556 1558 1559 1561 1562 1564 1565 1566 1567 1568 1569 1570 1571 1572 1573 1573 1574
1503 1504 1505 1507 1508 1510 1512 1514 1516 1518 1520 1523 1525 1528 1530 1532 1534 1536 1538 1540 1543 1545 1547 1549 1551 1553 1554 1556 1558 1560 1561 1562 1564 1565 1566 1567 1568 1569 1570 1571 1572 1572 1573
1502 1503 1503 1505 1506 1508 1509 1511 1513 1515 1517 1520 1522 1525 1527 1529 1531 1534 1536 1538 1540 1542 1544 1547 1549 1551 1553 1555 1556 1558 1559 1561 1562 1563 1565 1566 1567 1568 1569 1570 1570 1571 1572
1500 1501 1501 1502 1503 1505 1506 1508 1510 1512 1514 1516 1519 1521 1524 1526 1529 1531 1533 1535 1537 1539 1542 1544 1546 1548 1550 1552 1554 1556 1557 1559 1560 1561 1563 1564 1565 1566 1567 1568 1569 1570 1570
1498 1498 1499 1500 1501 1502 1504 1505 1507 1509 1511 1513 1515 1518 1520 1523 1525 1527 1530 1532 1534 1536 1539 1541 1543 1545 1547 1549 1551 1553 1555 1557 1558 1559 1560 1562 1563 1564 1565 1566 1567 1568 1568
1496 1496 1497 1498 1499 1500 1501 1502 1504 1506 1507 1509 1511 1513 1516 1519 1521 1524 1526 1528 1531 1533 1535 1537 1540 1542 1544 1546 1548 1550 1552 1552 1554 1556 1557 1559 1560 1562 1563 1564 1565 1566 1566
1495 1495 1496 1496 1497 1498 1499 1499 1500 1501 1503 1505 1507 1509 1512 1515 1517 1520 1522 1525 1527 1529 1532 1534 1536 1539 1541 1542 1545 1547 1549 1550 1551 1552 1554 1556 1557 1558 1560 1561 1562 1563 1564
1494 1494 1494 1494 1494 1495 1496 1497 1498 1500 1501 1502 1504 1506 1508 1511 1513 1515 1518 1520 1523 1525 1528 1530 1533 1535 1537 1539 1541 1543 1545 1546 1548 1549 1550 1552 1554 1555 1556 1558 1559 1560 1561
1493 1492 1492 1492 1492 1493 1493 1494 1495 1497 1498 1499 1500 1502 1504 1506 1509 1511 1514 1516 1519 1521 1524 1526 1529 1531 1533 1536 1538 1540 1541 1543 1544 1546 1547 1548 1550 1552 1553 1554 1555 1556 1557